• In Deutschland
  • Länderverzeichnis
  • Für 7 Tage
  • Wassertemperatur
  • Satellitenkarten
  • Wetterkarte
  • Widgets
  • user-avatar
    Anmelden

    Stündliche Wetter Groß-Gerau

    Heute, 12 Dezember, Dienstag

    Zeit Temperatur Niederschläge Wind Luftdruck Luftfeuchtigkeit
    00:00 +4°C° 0 mm 6 m/S 732 mmHg 80%
    01:00 +4°C° 0 mm 6 m/S 732 mmHg 78%
    02:00 +3°C° 0,1 mm 7 m/S 734 mmHg 78%
    03:00 +2°C° 0,1 mm 7 m/S 735 mmHg 77%
    04:00 +2°C° 0,1 mm 7 m/S 737 mmHg 77%
    05:00 +2°C° 0 mm 7 m/S 738 mmHg 77%
    06:00 +2°C° 0 mm 6 m/S 740 mmHg 77%
    07:00 +1°C° 0 mm 6 m/S 742 mmHg 78%
    08:00 +1°C° 0 mm 6 m/S 744 mmHg 77%
    09:00 +1°C° 0 mm 5 m/S 745 mmHg 77%
    10:00 +1°C° 0 mm 5 m/S 747 mmHg 77%
    11:00 +2°C° 0 mm 5 m/S 747 mmHg 76%
    12:00 +2°C° 0 mm 5 m/S 748 mmHg 74%
    13:00 +2°C° 0 mm 6 m/S 749 mmHg 73%
    14:00 +2°C° 0 mm 5 m/S 750 mmHg 74%
    15:00 +2°C° 0 mm 5 m/S 750 mmHg 75%
    16:00 +1°C° 0 mm 5 m/S 751 mmHg 76%
    17:00 +1°C° 0 mm 4 m/S 752 mmHg 77%
    18:00 +1°C° 0 mm 4 m/S 753 mmHg 78%
    19:00 +1°C° 0 mm 3 m/S 753 mmHg 78%
    20:00 +1°C° 0 mm 3 m/S 754 mmHg 81%
    21:00 +1°C° 0 mm 3 m/S 755 mmHg 83%
    22:00 0°C° 0 mm 3 m/S 755 mmHg 86%
    23:00 0°C° 0 mm 3 m/S 755 mmHg 87%

    Morgen, 13 Dezember, Mittwoch

    Zeit Temperatur Niederschläge Wind Luftdruck Luftfeuchtigkeit
    00:00 0°C° 0 mm 3 m/S 755 mmHg 88%
    01:00 0°C° 0 mm 3 m/S 755 mmHg 90%
    02:00 0°C° 0 mm 3 m/S 755 mmHg 90%
    03:00 0°C° 0 mm 3 m/S 755 mmHg 90%
    04:00 0°C° 0 mm 3 m/S 755 mmHg 90%
    05:00 -1°C° 0 mm 4 m/S 755 mmHg 88%
    06:00 -1°C° 0 mm 4 m/S 754 mmHg 87%
    07:00 0°C° 0 mm 4 m/S 754 mmHg 85%
    08:00 0°C° 0 mm 5 m/S 753 mmHg 82%
    09:00 +1°C° 0 mm 5 m/S 752 mmHg 79%
    10:00 +1°C° 0 mm 6 m/S 752 mmHg 75%
    11:00 +2°C° 0,2 mm 6 m/S 751 mmHg 74%
    12:00 +2°C° 0,2 mm 6 m/S 750 mmHg 72%
    13:00 +3°C° 0,2 mm 7 m/S 749 mmHg 70%
    14:00 +3°C° 0,8 mm 6 m/S 748 mmHg 73%
    15:00 +3°C° 0,8 mm 6 m/S 747 mmHg 76%
    16:00 +3°C° 0,8 mm 6 m/S 746 mmHg 79%
    17:00 +3°C° 0,5 mm 6 m/S 745 mmHg 80%
    18:00 +3°C° 0,5 mm 6 m/S 745 mmHg 82%
    19:00 +3°C° 0,5 mm 6 m/S 744 mmHg 84%
    20:00 +4°C° 0,2 mm 6 m/S 743 mmHg 84%
    21:00 +4°C° 0,2 mm 7 m/S 742 mmHg 84%
    22:00 +4°C° 0,2 mm 7 m/S 741 mmHg 84%
    23:00 +4°C° 0,3 mm 7 m/S 741 mmHg 84%

    übermorgen, 14 Dezember, Donnerstag

    Zeit Temperatur Niederschläge Wind Luftdruck Luftfeuchtigkeit
    00:00 +5°C° 0,3 mm 7 m/S 741 mmHg 84%
    01:00 +5°C° 0,3 mm 7 m/S 741 mmHg 84%
    02:00 +5°C° 0,3 mm 7 m/S 741 mmHg 82%
    03:00 +4°C° 0,3 mm 6 m/S 741 mmHg 80%
    04:00 +3°C° 0,3 mm 6 m/S 741 mmHg 77%
    05:00 +3°C° 0,4 mm 6 m/S 742 mmHg 76%
    06:00 +3°C° 0,4 mm 6 m/S 743 mmHg 74%
    07:00 +3°C° 0,4 mm 6 m/S 743 mmHg 72%
    08:00 +2°C° 0 mm 5 m/S 744 mmHg 73%
    09:00 +2°C° 0 mm 5 m/S 744 mmHg 73%
    10:00 +2°C° 0 mm 5 m/S 745 mmHg 74%
    11:00 +3°C° 0,5 mm 4 m/S 744 mmHg 76%
    12:00 +4°C° 0,5 mm 4 m/S 743 mmHg 78%
    13:00 +4°C° 0,5 mm 4 m/S 742 mmHg 81%
    14:00 +4°C° 0,9 mm 4 m/S 741 mmHg 82%
    15:00 +3°C° 0,9 mm 5 m/S 740 mmHg 82%
    16:00 +3°C° 0,9 mm 5 m/S 738 mmHg 83%
    17:00 +3°C° 0,9 mm 5 m/S 738 mmHg 84%
    18:00 +4°C° 0,9 mm 4 m/S 737 mmHg 84%
    19:00 +4°C° 0,9 mm 4 m/S 736 mmHg 85%
    20:00 +3°C° 0,1 mm 5 m/S 736 mmHg 81%
    21:00 +3°C° 0,1 mm 6 m/S 736 mmHg 78%
    22:00 +2°C° 0,1 mm 7 m/S 737 mmHg 74%
    23:00 +2°C° 0 mm 6 m/S 738 mmHg 75%

    15 Dezember, Freitag

    Zeit Temperatur Niederschläge Wind Luftdruck Luftfeuchtigkeit
    00:00 +1°C° 0 mm 6 m/S 739 mmHg 76%
    01:00 +1°C° 0 mm 5 m/S 740 mmHg 76%
    02:00 +1°C° 0 mm 5 m/S 740 mmHg 78%
    03:00 0°C° 0 mm 4 m/S 740 mmHg 79%
    04:00 0°C° 0 mm 4 m/S 741 mmHg 81%
    05:00 0°C° 0 mm 4 m/S 741 mmHg 82%
    06:00 0°C° 0 mm 4 m/S 740 mmHg 83%
    07:00 0°C° 0 mm 4 m/S 740 mmHg 85%
    08:00 0°C° 0 mm 4 m/S 740 mmHg 84%
    09:00 0°C° 0 mm 4 m/S 740 mmHg 84%
    10:00 +1°C° 0 mm 4 m/S 740 mmHg 83%
    11:00 +1°C° 0 mm 4 m/S 740 mmHg 81%
    12:00 +2°C° 0 mm 5 m/S 740 mmHg 79%
    13:00 +3°C° 0 mm 5 m/S 739 mmHg 76%
    14:00 +3°C° 0,1 mm 4 m/S 739 mmHg 78%
    15:00 +3°C° 0,1 mm 4 m/S 739 mmHg 79%
    16:00 +3°C° 0,1 mm 3 m/S 739 mmHg 81%
    17:00 +3°C° 0,4 mm 3 m/S 740 mmHg 82%
    18:00 +3°C° 0,4 mm 3 m/S 740 mmHg 84%
    19:00 +2°C° 0,4 mm 3 m/S 740 mmHg 86%
    20:00 +3°C° 0 mm 2 m/S 741 mmHg 88%
    21:00 +2°C° 0 mm 2 m/S 741 mmHg 89%
    22:00 +2°C° 0 mm 2 m/S 741 mmHg 91%
    23:00 +2°C° 0 mm 2 m/S 742 mmHg 91%

    16 Dezember, Samstag

    Zeit Temperatur Niederschläge Wind Luftdruck Luftfeuchtigkeit
    00:00 +2°C° 0 mm 1 m/S 742 mmHg 92%
    01:00 +2°C° 0 mm 1 m/S 743 mmHg 92%
    02:00 +2°C° 0 mm 1 m/S 743 mmHg 93%
    03:00 +2°C° 0 mm 1 m/S 744 mmHg 93%
    04:00 +2°C° 0 mm 1 m/S 744 mmHg 93%
    05:00 +2°C° 0 mm 1 m/S 745 mmHg 92%
    06:00 +1°C° 0 mm 2 m/S 745 mmHg 91%
    07:00 +2°C° 0 mm 2 m/S 746 mmHg 90%
    08:00 +2°C° 0 mm 2 m/S 746 mmHg 89%
    09:00 +2°C° 0 mm 2 m/S 747 mmHg 88%
    10:00 +2°C° 0 mm 2 m/S 748 mmHg 87%
    11:00 +2°C° 0 mm 3 m/S 748 mmHg 85%
    12:00 +2°C° 0 mm 3 m/S 748 mmHg 84%
    13:00 +3°C° 0 mm 3 m/S 749 mmHg 82%
    14:00 +3°C° 0,1 mm 3 m/S 749 mmHg 83%
    15:00 +3°C° 0,1 mm 3 m/S 749 mmHg 84%
    16:00 +2°C° 0,1 mm 3 m/S 750 mmHg 85%
    17:00 +2°C° 0,2 mm 3 m/S 750 mmHg 86%
    18:00 +2°C° 0,2 mm 3 m/S 750 mmHg 86%
    19:00 +2°C° 0,2 mm 3 m/S 751 mmHg 87%
    20:00 +2°C° 0,1 mm 3 m/S 751 mmHg 86%
    21:00 +2°C° 0,1 mm 3 m/S 751 mmHg 85%
    22:00 +1°C° 0,1 mm 3 m/S 752 mmHg 85%
    23:00 +1°C° 0,1 mm 3 m/S 752 mmHg 86%

    17 Dezember, Sonntag

    Zeit Temperatur Niederschläge Wind Luftdruck Luftfeuchtigkeit
    00:00 +1°C° 0,1 mm 3 m/S 752 mmHg 87%
    01:00 +1°C° 0,1 mm 3 m/S 752 mmHg 89%
    02:00 0°C° 0,1 mm 3 m/S 752 mmHg 88%
    03:00 -1°C° 0,1 mm 4 m/S 752 mmHg 87%
    04:00 -1°C° 0,1 mm 4 m/S 752 mmHg 86%
    05:00 -1°C° 0,3 mm 4 m/S 752 mmHg 86%
    06:00 -1°C° 0,3 mm 4 m/S 752 mmHg 86%
    07:00 -1°C° 0,3 mm 4 m/S 752 mmHg 86%
    08:00 -1°C° 0,7 mm 4 m/S 752 mmHg 88%
    09:00 -1°C° 0,7 mm 4 m/S 752 mmHg 89%
    10:00 -1°C° 0,7 mm 4 m/S 752 mmHg 91%
    11:00 0°C° 0,7 mm 4 m/S 752 mmHg 90%
    12:00 0°C° 0,7 mm 4 m/S 752 mmHg 90%
    13:00 0°C° 0,7 mm 4 m/S 752 mmHg 90%
    14:00 0°C° 0,3 mm 4 m/S 752 mmHg 90%
    15:00 +1°C° 0,3 mm 3 m/S 753 mmHg 90%
    16:00 +1°C° 0,3 mm 3 m/S 753 mmHg 90%
    17:00 0°C° 0 mm 3 m/S 753 mmHg 91%
    18:00 -1°C° 0 mm 2 m/S 754 mmHg 91%
    19:00 -1°C° 0 mm 2 m/S 754 mmHg 92%
    20:00 -2°C° 0 mm 2 m/S 754 mmHg 93%
    21:00 -2°C° 0 mm 2 m/S 755 mmHg 93%
    22:00 -2°C° 0 mm 2 m/S 755 mmHg 93%
    23:00 -1°C° 0 mm 1 m/S 755 mmHg 93%
    Mehr zeigen